Regional Weather Roundup
Issued by NWS

Home | Current Version | Previous Version | Graphics & Text | Print | Product List | Glossary Off
Versions: 1 2 3 4 5 6 7 8 9 10 11 12 13 14 15 16 17 18 19 20 21 22 23 24 25 26 27 28 29 30 31 32 33 34 35 36 37 38 39 40 41 42 43 44 45 46 47 48 49 50

000
ASUS43 KFSD 201710
RWRSD

WEATHER ROUNDUP FOR SOUTH DAKOTA
NATIONAL WEATHER SERVICE SIOUX FALLS SD
1200 PM CDT SAT SEP 20 2014

NOTE: "FAIR" INDICATES FEW OR NO CLOUDS BELOW 12,000 FEET WITH NO
SIGNIFICANT WEATHER AND/OR OBSTRUCTIONS TO VISIBILITY.


SDZ001>005-009-010-012>017-201800-
NORTHWEST AND NORTH CENTRAL SOUTH DAKOTA

CITY           SKY/WX    TMP DP  RH WIND       PRES   REMARKS
BUFFALO          N/A     68  44  42 NW32G40   30.05R
FAITH            N/A     74  45  35 NW29G36   30.02S
MOBRIDGE       MOSUNNY   73  54  51 W14G26    29.89S
$$

SDZ012>016-024>037-041>051-057-063-072>074-201800-
SOUTHWEST AND SOUTH CENTRAL SOUTH DAKOTA

CITY           SKY/WX    TMP DP  RH WIND       PRES   REMARKS
RAPID CTY ARPT SUNNY     75  45  34 N21       30.12R
PIERRE         PTSUNNY   77  51  40 NW17      29.95S
CUSTER         SUNNY     68  40  35 NW8G21    30.23R
ELLSWORTH AFB  SUNNY     74  45  35 NW23G33   30.12R
PHILIP         SUNNY     78  48  34 NW21G29   30.03R
PINE RIDGE     MOSUNNY   74  51  44 W9        30.14R
WINNER         FAIR      79  53  40 W13       30.00S
$$

SDZ004>011-016>023-039-040-201800-
NORTHEAST SOUTH DAKOTA

CITY           SKY/WX    TMP DP  RH WIND       PRES   REMARKS
ABERDEEN       SUNNY     75  55  49 SW9       29.85F
WATERTOWN      SUNNY     73  56  54 NW9       29.89F
SISSETON         N/A     74  58  57 W13       29.82F
$$

SDZ017-020-022-023-036>040-048>070-201800-
SOUTHEAST SOUTH DAKOTA

CITY           SKY/WX    TMP DP  RH WIND       PRES   REMARKS
SIOUX FALLS    SUNNY     77  57  50 W9        29.92S
HURON          SUNNY     77  55  46 W10       29.90F
CHAMBERLAIN    SUNNY     75  54  47 SW12      29.96F
MITCHELL       SUNNY     76  59  55 SW7       29.93F
YANKTON        SUNNY     75  61  60 W9        29.94S
$$

ABBREVIATIONS USED IN REMARKS
   TC - TEMPERATURE IN CELSIUS
  WCI - WIND CHILL INDEX
   HX - HEAT INDEX
  VSB - VISIBILITY



USA.gov is the U.S. government's official web portal to all federal, state and local government web resources and services.